Weather History for Cuernavaca, Mexico

Change the Weather History Date:

Monday, February 11, 2013

  Actual Average Record
Temperature  
Mean Temperature 68 °F -  
Max Temperature 79 °F 84 °F 91 °F (2011)
Min Temperature 56 °F 59 °F 56 °F (2013)
Cooling Degree Days 2    
Growing Degree Days 18 (Base 50)    
Moisture  
Dew Point 36 °F    
Average Humidity 25    
Maximum Humidity 45    
Minimum Humidity 12    
Precipitation  
Precipitation 0.00 in - - ()
Sea Level Pressure  
Sea Level Pressure 30.05 in    
Wind  
Wind Speed 1 mph ()    
Max Wind Speed 7 mph    
Max Gust Speed -    
Visibility 10.5 miles    
Events      
Averages and records for this station are not official NWS values.
T = Trace of Precipitation, MM = Missing Value Source: Averaged Metar Reports

Daily Weather History Graph

Daily Weather History Graph

Search for Another Location

Airport:

Trip Planner

Search our weather history database for the weather conditions in past years. The results will help you decide how hot, cold, wet, or windy it might be!

Date:

Astronomy

Feb. 11, 2013 Rise Set
Actual Time 7:06 AM CST 6:35 PM CST
Civil Twilight 6:44 AM CST 6:58 PM CST
Nautical Twilight 6:18 AM CST 7:24 PM CST
Astronomical Twilight 5:52 AM CST 7:49 PM CST
Moon 7:52 AM CST (2/11) 8:09 PM CST (2/11)
Length of Visible Light 12h 13m
Length of Day
11h 28m
Waxing Crescent, 3% of the Moon is Illuminated
Feb 11
Waxing Crescent
Feb 17
First Quarter
Feb 25
Full
Mar 4
Last Quarter
Mar 11
New

Hourly Weather History & Observations

Time (CST) Temp. Dew Point Humidity Pressure Visibility Wind Dir Wind Speed Gust Speed Precip Events Conditions
6:10 AM 59.0 °F 37.4 °F 45% 30.16 in 10.0 mi Calm Calm - N/A   Clear
6:54 AM 59.0 °F 37.4 °F 45% 30.17 in 10.0 mi Calm Calm - N/A   Clear
7:49 AM 60.8 °F 37.4 °F 42% 30.19 in 10.0 mi Calm Calm - N/A   Clear
8:40 AM 64 °F 40 °F 30% 29.95 in 12 mi Calm Calm - -  
8:42 AM 69.8 °F 39.2 °F 33% 30.21 in 10.0 mi Calm Calm - N/A   Clear
9:50 AM 71.6 °F 42.8 °F 35% 30.22 in 10.0 mi Calm Calm - N/A   Clear
10:53 AM 71.6 °F 41.0 °F 33% 30.22 in 10.0 mi Calm Calm - N/A   Clear
11:50 AM 69 °F 40 °F 24% 29.95 in 12 mi Calm Calm - -  
11:53 AM 77.0 °F 39.2 °F 26% 30.19 in 10.0 mi Calm Calm - N/A   Clear
12:47 PM 80.6 °F 39.2 °F 23% 30.16 in 10.0 mi South 5.8 mph - N/A   Clear
1:53 PM 82.4 °F 37.4 °F 20% 30.12 in 10.0 mi Calm Calm - N/A   Clear
2:55 PM 75 °F 42 °F 20% 29.88 in 12 mi SSE 4.5 mph - -  
3:46 PM 84.2 °F 30.2 °F 14% 30.05 in 10.0 mi East 5.8 mph - N/A   Clear
4:40 PM 84.2 °F 26.6 °F 12% 30.05 in 10.0 mi ENE 6.9 mph - N/A   Clear
5:45 PM 84.2 °F 30.2 °F 14% 30.05 in 10.0 mi South 5.8 mph - N/A   Clear
5:55 PM 77 °F 35 °F 12% 29.78 in 12 mi South 2.2 mph - -  
6:41 PM 78.8 °F 33.8 °F 20% 30.06 in 10.0 mi South 5.8 mph - N/A   Clear
8:45 PM 69 °F 28 °F 12% 29.79 in 11 mi North 2.2 mph - -  
11:40 PM 63 °F 29 °F 17% 29.82 in 11 mi North 2.2 mph - -